Probability
0 0 0 0 0 0 0 0 0 0 0 0 0 0 0 0 0 0 0 0 0 0 0 0 0 0 0 0 0 0 0 0 0 0 0 0 0 0 0 0 0 0 0
0 0 0 0 0 0 0 0 0 0 0 0 0 0 0 0 0 0 0 0 0 0 0 0 0 0 0 0 0 0 0 0 0 0 0 0 0 0 0 0 0 0 0
0 0 0 0 0 0 0 0 0 0 0 0 0 0 0 0 0 0 0 0 0 0 0 0 0 0 0 0 0 0 0 0 0 0 0 0 0 0 0 0 0 0 0
0 0 0 0 0 0 0 0 0 0 0 0 0 0 0 0 0 0 0 0 0 0 0 0 0 0 0 0 0 0 0 0 0 0 0 0 0 0 0 0 0 0 0
0 0 0 0 0 0 0 0 0 0 0 0 0 0 0 0 0 0 0 0 0 0 0 0 0 0 0 0 0 0 0 0 0 0 0 0 0 0 0 0 0 0 0
0 0 0 0 0 0 0 0 0 0 0 0 0 0 0 0 0 0 0 0 0 0 0 0 0 0 0 0 0 0 0 0 0 0 0 0 0 0 0 0 0 0 0
0 0 0 0 0 0 0 0 0 0 0 0 0 0 0 0 0 0 0 0 0 0 0 0 0 0 0 0 0 0 0 0 0 0 0 0 0 0 0 0 0 0 0
0 0 0 0 0 0 0 0 0 0 0 0 0 0 0 0 0 0 0 0 0 0 0 0 0 0 0 0 0 0 0 0 0 0 0 0 0 0 0 0 0 0 0
0 0 0 0 0 0 0 0 0 0 0 0 0 0 0 0 0 0 0 0 0 0 0 0 0 0 0 0 0 0 0 0 0 0 0 0 0 0 0 0 0 0 0
0 0 0 0 0 0 0 0 0 0 0 0 0 0 0 0 0 0 0 0 0 0 0 0 0 0 0 0 0 0 0 0 0 0 0 0 0 0 0 0 0 0 0
0 0 0 0 0 0 0 0 0 0 0 0 0 0 0 0 0 0 0 0 0 0 0 0 0 0 0 0 0 0 0 0 0 0 0 0 0 0 0 0 0 0 0
0 0 0 0 0 0 0 0 0 0 0 0 0 0 0 0 0 0 0 0 0 0 0 0 0 0 0 0 0 0 0 0 0 0 0 0 0 0 0 0 0 0 0
0 0 0 0 0 0 0 0 0 0 0 0 0 0 0 0 0 0 0 0 0 0 0 0 0 0 0 0 0 0 0 0 0 0 0 0 0 0 0 0 0 0 0
0 0 0 0 0 0 0 0 0 0 0 0 0 0 0 0 0 0 0 0 0 0 0 0 0 0 0 0 0 0 0 0 0 0 0 0 0 0 0 0 0 0 0
0 0 0 0 0 0 0 0 0 0 0 0 0 0 0 0 0 0 0 0 0 0 0 0 0 0 0 0 0 0 0 0 0 0 0 0 0 0 0 0 0 0 0
0 0 0 0 0 0 0 0 0 0 0 0 0 0 0 0 0 0 0 0 0 0 0 0 0 0 0 0 0 0 0 0 0 0 0 0 0 0 0 0 0 0 0
0 0 0 0 0 0 0 0 0 0 0 0 0 0 0 0 0 0 0 0 0 0 0 0 0 0 0 0 0 0 0 0 0 0 0 0 0 0 0 0 0 0 0
0 0 0 0 0 0 0 0 0 0 0 0 0 0 0 0 0 0 0 0 0 0 0 0 0 0 0 0 0 0 0 0 0 0 0 0 0 0 0 0 0 0 0
0 0 0 0 0 0 0 0 0 0 0 0 0 0 0 0 0 0 0 0 0 0 0 0 0 0 0 0 0 0 0 0 0 0 0 0 0 0 0 0 0 0 0
0 0 0 0 0 0 0 0 0 0 0 0 0 0 0 0 0 0 0 0 0 0 0 0 0 0 0 0 0 0 0 0 0 0 0 0 0 0 0 0 0 0 0
0 0 0 0 0 0 0 0 0 0 0 0 0 0 0 0 0 0 0 0 0 0 0 0 0 0 0 0 0 0 0 0 0 0 0 0 0 0 0 0 0 0 0
0 0 0 0 0 0 0 0 0 0 0 0 0 0 0 0 0 0 0 0 0 0 0 0 0 0 0 0 0 0 0 0 0 0 0 0 0 0 0 0 0 0 0
0 0 0 0 0 0 0 0 0 0 0 0 0 0 0 0 0 0 0 0 0 0 0 0 0 0 0 0 0 0 0 0 0 0 0 0 0 0 0 0 0 0 0
0 0 0 0 0 0 0 0 0 0 0 0 0 0 0 0 0 0 0 0 0 0 0 0 0 0 0 0 0 0 0 0 0 0 0 0 0 0 0 0 0 0 0
0 0 0 0 0 0 0 0 0 0 0 0 0 0 0 0 0 0 0 0 0 0 0 0 0 0 0 0 0 0 0 0 0 0 0 0 0 0 0 0 0 0 0
0 0 0 0 0 0 0 0 0 0 0 0 0 0 0 0 0 0 0 0 0 0 0 0 0 0 0 0 0 0 0 0 0 0 0 0 0 0 0 0 0 0 0
Height
5790 5778 5766 5753 5739 5724 5709 5694 5679 5663 5646 5630 5615 5600 5585 5570 5556 5541 5528 5517 5508 5500 5493 5488 5484 5481 5479 5479 5480 5482 5487 5493 5498 5507 5516 5526 5535 5547 5562 5576 5591 5606 5620
5779 5768 5755 5740 5726 5711 5696 5680 5663 5646 5629 5613 5597 5582 5568 5553 5539 5525 5512 5500 5491 5483 5477 5471 5467 5464 5462 5460 5460 5462 5467 5473 5478 5486 5496 5506 5514 5524 5538 5551 5566 5582 5598
5770 5757 5743 5729 5714 5699 5682 5665 5647 5630 5613 5597 5583 5569 5555 5539 5525 5513 5500 5488 5479 5471 5464 5458 5453 5449 5446 5444 5443 5444 5447 5453 5459 5466 5475 5484 5494 5504 5515 5527 5543 5558 5574
5760 5747 5733 5718 5703 5686 5668 5650 5632 5615 5599 5583 5568 5554 5539 5526 5512 5500 5489 5478 5468 5460 5453 5446 5441 5436 5432 5430 5428 5428 5429 5434 5440 5447 5455 5465 5474 5484 5495 5506 5520 5535 5552
5751 5737 5723 5708 5691 5673 5655 5637 5619 5602 5586 5570 5554 5540 5525 5511 5499 5488 5478 5468 5458 5449 5441 5435 5429 5424 5419 5416 5414 5413 5413 5416 5421 5428 5436 5446 5456 5466 5476 5487 5499 5514 5531
5743 5729 5713 5697 5680 5662 5644 5625 5608 5591 5575 5559 5543 5527 5514 5501 5489 5479 5469 5459 5449 5439 5430 5423 5416 5410 5406 5402 5399 5398 5397 5399 5403 5409 5417 5427 5438 5449 5460 5471 5480 5493 5509
5735 5720 5704 5687 5670 5652 5634 5616 5598 5582 5565 5549 5532 5517 5503 5490 5479 5469 5459 5449 5439 5428 5418 5409 5401 5395 5390 5387 5384 5383 5382 5383 5386 5391 5399 5408 5419 5431 5443 5455 5464 5474 5489
5726 5711 5695 5678 5660 5642 5624 5606 5590 5573 5556 5539 5523 5508 5494 5481 5469 5457 5446 5434 5423 5412 5401 5392 5384 5377 5373 5370 5368 5367 5367 5368 5370 5375 5382 5391 5402 5414 5426 5438 5450 5460 5471
5717 5702 5685 5668 5650 5632 5615 5598 5581 5564 5548 5531 5515 5500 5486 5473 5460 5447 5433 5419 5405 5392 5381 5370 5362 5356 5352 5350 5350 5350 5351 5353 5356 5360 5366 5375 5385 5397 5409 5422 5434 5446 5456
5709 5693 5676 5659 5641 5623 5606 5589 5572 5556 5539 5523 5507 5492 5478 5464 5450 5435 5420 5404 5387 5371 5357 5346 5338 5333 5331 5330 5331 5333 5336 5339 5342 5346 5352 5360 5369 5381 5393 5406 5419 5432 5443
5701 5685 5668 5651 5633 5615 5598 5583 5567 5550 5534 5517 5501 5486 5471 5456 5440 5423 5406 5388 5369 5350 5333 5321 5312 5308 5308 5310 5313 5316 5321 5325 5329 5334 5339 5347 5355 5366 5378 5392 5405 5419 5431
5693 5677 5661 5644 5626 5609 5593 5577 5561 5545 5529 5512 5496 5480 5464 5449 5432 5414 5394 5373 5351 5330 5312 5299 5290 5286 5286 5290 5296 5302 5308 5314 5318 5323 5328 5335 5343 5353 5365 5378 5392 5406 5419
5686 5670 5654 5637 5621 5604 5588 5572 5557 5541 5524 5507 5491 5475 5459 5443 5425 5406 5384 5360 5337 5316 5299 5286 5278 5274 5274 5277 5283 5291 5297 5303 5309 5314 5319 5325 5334 5343 5354 5366 5380 5394 5407
5680 5664 5648 5632 5615 5599 5583 5568 5553 5536 5520 5503 5487 5472 5456 5438 5419 5398 5375 5351 5329 5310 5294 5283 5276 5272 5272 5274 5278 5284 5290 5296 5302 5306 5312 5318 5326 5335 5345 5357 5370 5383 5396
5674 5659 5644 5628 5611 5595 5580 5565 5549 5533 5517 5501 5485 5469 5452 5434 5415 5394 5372 5348 5326 5308 5295 5285 5279 5275 5275 5276 5278 5282 5286 5291 5297 5302 5307 5313 5320 5328 5338 5349 5361 5374 5386
5669 5655 5639 5624 5608 5592 5577 5562 5547 5531 5515 5499 5484 5467 5450 5433 5414 5393 5371 5349 5329 5312 5299 5290 5284 5281 5280 5280 5281 5283 5286 5290 5294 5299 5304 5310 5317 5324 5333 5343 5354 5366 5377
5665 5651 5636 5620 5604 5589 5575 5560 5545 5529 5514 5499 5483 5467 5450 5433 5414 5395 5374 5353 5334 5318 5305 5297 5291 5287 5285 5284 5285 5285 5288 5290 5293 5297 5302 5307 5314 5321 5329 5339 5349 5359 5369
5661 5647 5631 5616 5601 5586 5571 5557 5542 5528 5514 5500 5484 5468 5452 5435 5418 5399 5380 5360 5341 5325 5313 5304 5298 5294 5291 5290 5289 5289 5290 5292 5294 5297 5301 5306 5312 5319 5327 5335 5345 5354 5364
5658 5643 5628 5613 5599 5584 5570 5556 5542 5528 5515 5501 5486 5470 5455 5439 5422 5405 5386 5368 5350 5334 5322 5311 5304 5300 5297 5294 5293 5292 5292 5293 5295 5298 5301 5306 5312 5318 5325 5334 5342 5351 5359
5654 5640 5626 5611 5596 5582 5569 5556 5543 5530 5517 5503 5488 5473 5458 5442 5426 5410 5392 5375 5359 5344 5331 5320 5312 5306 5301 5298 5296 5295 5294 5295 5296 5299 5302 5307 5312 5318 5325 5332 5340 5348 5356
5651 5637 5623 5609 5595 5581 5568 5556 5543 5530 5517 5503 5489 5476 5462 5447 5431 5415 5399 5383 5368 5354 5341 5329 5320 5312 5307 5303 5300 5298 5297 5297 5298 5300 5303 5307 5312 5318 5324 5331 5339 5346 5353
5648 5635 5621 5607 5593 5580 5567 5555 5543 5531 5518 5505 5492 5479 5466 5452 5437 5423 5408 5394 5379 5366 5353 5340 5329 5320 5313 5308 5304 5301 5299 5298 5299 5301 5304 5307 5312 5318 5324 5331 5337 5344 5351
5645 5632 5619 5606 5593 5580 5567 5556 5544 5532 5519 5507 5495 5483 5471 5458 5445 5431 5418 5404 5391 5378 5364 5351 5340 5330 5321 5314 5308 5305 5302 5301 5301 5302 5304 5308 5312 5318 5324 5330 5337 5343 5350
5643 5630 5617 5604 5592 5579 5567 5556 5544 5533 5521 5510 5498 5487 5475 5463 5451 5439 5426 5414 5401 5388 5375 5362 5351 5340 5330 5322 5315 5309 5305 5303 5303 5303 5305 5308 5312 5318 5323 5330 5336 5342 5348
5640 5628 5615 5603 5591 5579 5567 5556 5545 5534 5523 5512 5502 5490 5479 5467 5456 5444 5433 5420 5408 5396 5384 5372 5361 5351 5341 5331 5322 5316 5310 5306 5305 5305 5306 5309 5312 5317 5322 5328 5335 5341 5347
5638 5626 5614 5602 5590 5579 5567 5557 5546 5536 5526 5515 5505 5494 5483 5472 5460 5448 5437 5426 5415 5403 5392 5381 5370 5359 5349 5339 5331 5323 5316 5311 5308 5307 5307 5309 5312 5316 5321 5326 5332 5339 5345
Wind_Speed
56 61 66 71 75 78 80 84 86 88 88 86 81 76 73 72 71 70 68 65 62 59 57 55 53 53 54 56 58 60 62 64 66 68 72 77 84 89 93 94 93 90 87
60 65 69 74 77 79 82 85 87 87 86 82 77 75 73 72 70 67 63 60 57 53 51 50 49 49 50 51 54 58 60 63 65 66 67 71 76 84 90 94 95 94 91
63 68 72 75 78 80 83 85 86 85 82 78 75 74 72 69 65 60 56 53 50 48 46 45 44 44 45 47 49 53 57 60 63 65 66 67 70 76 83 91 95 96 95
66 70 73 76 78 80 83 85 85 82 78 76 75 74 71 66 61 56 52 49 48 46 45 43 42 42 42 42 44 48 52 57 61 64 66 66 66 69 74 84 92 96 97
67 71 73 75 78 81 83 83 81 78 76 76 75 73 69 63 57 52 49 47 47 47 45 44 42 41 41 41 41 43 47 52 57 62 66 67 66 66 68 74 86 93 97
68 71 73 75 78 81 82 81 78 76 75 75 73 71 65 59 54 50 48 48 47 48 47 46 45 44 42 41 41 41 43 47 53 58 64 67 68 67 65 66 74 87 94
68 71 73 75 78 80 80 78 76 74 74 73 71 67 62 57 53 51 51 51 51 51 51 50 48 47 45 43 41 40 41 43 48 53 60 65 68 68 66 65 65 75 88
69 71 73 76 78 79 78 76 73 73 73 71 68 64 61 57 55 55 56 56 56 55 54 53 52 50 47 44 42 40 40 41 44 49 55 61 67 68 67 66 64 66 76
69 71 73 76 78 78 76 74 72 72 71 70 66 63 60 58 57 58 60 61 61 59 58 56 53 51 48 45 43 41 39 39 41 45 50 56 63 67 68 66 64 64 67
69 71 73 76 77 76 74 72 71 71 70 68 65 63 60 59 60 62 64 64 64 64 61 57 53 49 46 43 41 40 38 37 37 40 46 51 57 64 68 67 65 63 64
69 71 73 76 76 74 72 69 69 69 68 66 64 62 61 62 64 66 68 68 69 67 61 55 49 45 43 41 38 37 35 34 34 36 41 47 52 59 65 67 65 64 62
69 71 73 74 74 71 69 68 68 68 67 65 64 63 63 65 67 68 70 72 71 65 56 47 39 33 32 34 35 34 32 30 30 32 36 42 47 53 60 64 65 63 62
68 70 72 73 71 69 67 66 67 66 66 65 64 64 65 66 68 70 73 74 68 60 49 38 28 19 15 18 24 27 28 27 27 28 32 37 42 47 54 60 63 61 61
68 69 71 71 70 67 66 65 65 65 65 65 64 65 65 67 70 73 75 73 66 55 42 32 23 15 7 5 11 17 22 23 23 25 28 33 38 42 48 54 59 59 58
67 68 69 70 68 66 64 64 64 64 64 64 64 65 66 69 71 74 75 71 63 51 39 29 22 16 10 4 4 9 15 18 20 22 25 29 33 37 42 48 53 55 55
65 67 68 68 66 64 62 62 63 63 63 63 64 65 67 69 71 74 75 71 62 50 36 26 20 16 12 7 2 5 9 13 16 19 23 26 30 33 37 42 47 49 50
64 65 67 67 65 62 61 61 62 62 62 62 63 65 67 69 71 73 74 71 63 52 38 26 19 14 9 5 2 2 5 8 13 17 21 25 28 30 34 37 41 44 46
63 64 66 65 63 61 60 60 60 60 60 61 62 64 66 68 70 72 73 72 65 55 44 32 23 16 11 7 5 2 2 6 11 15 20 24 27 29 32 34 37 39 41
62 63 64 64 62 60 58 58 58 58 59 60 61 63 65 66 68 70 71 71 67 59 50 39 29 22 16 11 8 5 2 5 9 14 19 23 27 29 31 33 34 35 36
61 62 63 63 61 59 57 56 56 56 57 58 60 61 63 65 67 69 70 70 69 64 56 47 36 27 20 15 11 7 3 3 8 13 18 23 27 29 31 32 32 32 33
60 61 62 61 60 57 55 55 55 55 55 57 58 60 61 63 66 68 69 69 68 66 61 53 45 35 26 19 14 10 5 2 6 12 17 22 26 29 30 31 31 30 30
59 60 61 60 58 56 54 53 53 53 54 55 56 58 59 61 63 65 66 66 66 65 63 58 52 44 34 25 18 13 8 3 4 9 15 21 26 29 30 30 30 30 28
59 59 59 59 58 55 53 52 51 52 52 53 54 55 57 59 60 62 63 64 64 63 62 60 56 50 44 35 25 18 11 6 1 7 14 19 25 28 30 31 30 30 28
58 58 58 58 57 54 52 50 50 50 50 51 51 53 54 56 57 59 60 61 61 62 61 60 59 55 50 43 35 26 18 10 3 4 11 17 23 28 30 31 31 30 29
57 57 57 57 56 54 51 50 49 49 49 49 49 50 52 54 56 57 58 59 60 60 60 60 58 57 54 50 44 36 27 17 9 1 7 14 20 26 30 31 31 31 30
56 56 56 55 55 53 51 49 48 47 48 48 48 49 50 51 53 55 56 57 58 59 59 59 58 57 55 53 49 43 36 27 17 7 3 10 17 23 28 31 32 32 32
Wind_Direction
328 329 329 329 329 328 327 326 324 323 321 320 319 318 316 315 313 311 309 307 303 300 295 291 285 279 272 265 258 252 247 243 240 237 234 231 229 227 226 225 225 224 224
332 331 331 331 330 329 328 326 325 323 322 322 321 320 319 318 317 315 313 310 307 304 300 295 289 283 276 269 262 254 248 243 240 237 233 232 231 227 225 224 223 223 222
333 332 332 332 331 329 328 327 325 325 324 324 323 323 322 321 319 317 315 312 310 307 304 299 293 287 280 273 266 259 251 244 240 237 233 230 230 229 226 224 222 222 221
334 334 333 332 331 330 329 327 326 326 326 326 325 325 324 324 322 321 319 317 315 312 309 304 299 293 286 279 271 263 255 246 240 237 233 230 228 228 228 225 222 221 220
335 334 333 332 332 331 329 328 328 328 328 328 328 328 328 327 326 325 324 322 318 315 311 307 301 296 290 284 277 268 259 250 242 237 233 230 228 226 226 227 224 221 220
335 334 334 334 332 331 330 330 330 330 330 330 330 330 330 329 328 327 326 323 319 315 311 306 302 296 291 286 280 273 263 253 246 239 234 230 228 226 224 224 226 223 220
335 336 335 334 333 333 332 332 332 332 332 332 332 332 332 331 330 329 326 323 318 313 308 303 299 294 289 285 280 274 267 257 248 241 234 230 227 226 224 222 223 225 221
337 337 336 336 335 334 333 333 334 334 334 334 335 334 334 333 331 329 327 323 318 313 308 302 297 292 286 281 277 273 267 259 250 242 235 230 226 225 224 222 220 222 223
339 338 337 337 336 335 335 335 336 336 336 337 337 337 336 335 333 331 328 324 320 315 309 303 297 291 285 278 273 270 265 259 251 243 236 230 226 223 222 222 220 219 221
339 339 339 338 337 337 336 337 338 338 339 339 339 339 339 338 336 333 331 328 323 318 312 304 296 289 282 275 270 266 262 257 251 243 236 230 226 223 221 221 220 218 218
340 340 340 339 338 338 338 339 340 340 341 342 342 342 342 341 340 338 335 332 328 323 317 309 300 288 277 269 264 261 257 253 248 242 235 229 225 222 220 219 219 218 217
342 341 341 340 340 340 340 341 342 343 344 345 345 346 345 345 343 342 340 337 334 331 327 321 313 299 279 264 257 254 251 248 244 239 233 228 224 221 219 218 218 218 217
343 342 342 341 341 341 342 342 344 345 347 348 349 349 349 348 347 347 346 344 342 341 340 340 338 326 296 261 249 246 244 242 238 235 230 225 221 219 218 216 216 216 216
344 343 343 342 342 343 344 344 346 348 350 351 351 352 352 352 352 352 352 351 351 352 356 1 8 10 359 264 242 238 237 234 231 229 225 220 218 217 215 214 214 215 215
345 344 343 344 344 345 345 346 348 351 353 354 354 355 355 356 357 357 358 358 359 1 7 18 30 44 60 81 207 231 229 225 224 221 218 215 213 213 212 211 212 212 213
345 345 345 345 346 346 347 348 351 353 355 356 356 358 359 360 1 2 3 4 5 7 12 26 40 54 66 66 78 232 223 218 216 213 210 209 208 207 207 207 208 209 211
346 346 346 347 347 348 349 350 353 356 357 358 359 0 2 3 4 6 8 9 10 11 14 21 32 46 62 63 39 235 211 208 207 206 204 202 201 201 201 202 204 206 208
347 347 347 348 349 349 351 352 355 357 359 360 1 3 4 6 7 9 11 13 15 15 17 18 22 29 31 22 4 346 225 209 204 200 198 196 195 194 195 197 199 202 205
347 348 349 350 350 351 352 354 356 358 360 2 4 5 6 8 10 12 14 16 18 19 20 21 22 24 24 22 17 4 283 216 203 196 194 192 190 190 190 193 195 198 202
348 349 350 351 352 353 353 355 357 359 1 3 6 7 8 9 11 14 16 18 20 22 23 23 22 23 24 24 22 14 340 226 202 197 194 191 189 188 189 190 192 195 198
349 350 351 352 353 354 355 356 358 360 2 5 8 9 9 11 13 15 18 19 21 23 24 25 24 24 22 21 20 17 3 283 207 199 194 191 189 188 189 189 190 192 195
350 351 352 354 354 355 356 357 359 0 3 5 8 10 11 12 14 16 18 20 22 23 25 26 27 26 25 22 19 16 10 349 217 203 197 193 191 190 190 189 190 191 194
351 352 353 354 355 356 357 358 359 1 4 6 8 10 12 13 15 17 19 21 22 24 26 27 28 28 28 26 23 19 13 4 265 207 201 196 194 193 192 192 191 192 193
352 352 353 355 356 357 357 358 359 1 4 6 8 9 11 13 15 17 19 20 22 24 26 27 28 29 29 29 28 24 20 13 354 217 205 200 198 197 196 195 194 194 193
352 353 354 355 356 357 358 358 359 1 4 6 8 9 11 12 14 16 18 19 21 23 25 27 28 29 30 30 30 29 27 22 15 303 211 205 203 201 200 199 198 196 195
352 353 354 355 356 357 358 358 359 1 3 6 8 10 11 12 14 15 16 18 20 22 23 25 26 27 29 30 30 30 29 28 26 18 228 211 208 206 205 204 203 201 198